Terminal Aerodrome Forecast
Issued by NWS Quad Cities IA IL

Home | Current Version | Previous Version | Text Only | Print | Product List | Glossary On
Versions: 1 2 3 4 5 6 7 8 9 10 11 12 13 14 15 16 17 18 19 20 21 22 23 24 25 26 27 28 29 30 31 32 33 34 35 36 37
150
FTUS43 KDVN 051708 AAG
TAFDBQ
TAF AMD
KDBQ 051708Z 0517/0612 18012KT 1/4SM FZFG VV002
     FM052000 18007KT 1SM BR OVC004
     FM052100 18012KT 3SM HZ OVC006
     FM060300 17005KT 4SM BR OVC009=

USA.gov is the U.S. government's official web portal to all federal, state and local government web resources and services.